Lid_Strength_Index
1 2 3 3 3 4 4 4 4 3 2 2 2 2 2 2 3 3 5 3 2 -2 -2 0 1 1 1 3 2 2 7 9 8 8 7 5 5 4 3 4 4 3 3 2 1
2 2 2 3 3 3 4 4 4 3 2 2 2 2 2 2 3 4 0 -2 -1 -3 1 2 3 2 3 4 3 5 8 8 5 5 6 5 5 5 5 5 5 4 3 2 1
2 2 2 2 3 3 3 3 3 3 2 2 2 2 2 2 3 2 -2 -2 -2 -2 0 1 2 2 4 4 4 5 10 5 5 5 4 5 5 4 5 7 5 5 4 3 2
2 2 2 2 3 3 3 2 3 3 3 2 2 2 2 2 6 2 -2 -2 -3 1 1 2 3 4 5 6 4 7 5 5 5 4 5 5 4 5 5 5 3 3 3 3 3
2 2 3 2 3 3 3 3 3 3 3 2 1 2 2 4 3 -0 -2 -2 1 1 2 3 3 4 7 5 5 6 5 5 4 4 4 4 5 5 5 3 3 3 3 3 3
2 2 3 3 3 3 3 3 3 3 3 2 1 2 3 4 -0 2 2 1 1 1 2 2 3 2 4 5 6 5 5 5 4 5 5 5 5 5 4 3 4 3 3 3 3
2 2 3 3 3 3 3 3 3 3 2 2 1 1 2 3 -0 1 1 1 1 2 2 2 2 3 3 5 3 4 6 5 5 5 6 5 7 6 4 3 4 4 3 3 3
3 3 3 3 3 3 3 3 3 3 3 2 1 1 3 0 -1 -0 1 2 1 1 2 1 1 2 3 3 4 6 6 9 6 5 5 6 9 6 4 4 5 4 4 3 3
3 3 3 3 3 3 3 3 2 2 2 1 1 2 4 1 1 0 1 3 2 2 2 1 2 3 4 6 7 7 10 9 7 5 6 7 8 6 4 5 5 4 4 4 3
3 3 3 3 3 3 3 4 2 2 1 0 1 3 2 3 1 1 1 2 3 3 3 3 3 5 5 6 10 9 8 7 7 7 6 6 7 5 5 5 5 5 4 4 4
3 3 3 3 3 3 3 0 2 3 1 4 4 3 2 1 0 2 2 3 2 4 5 4 6 8 7 6 6 6 7 7 6 5 6 7 7 6 5 6 6 5 4 4 4
4 4 4 3 3 3 2 2 2 2 4 3 3 2 2 1 3 2 1 4 4 6 5 6 7 5 5 5 6 6 7 8 6 5 6 6 7 5 5 5 5 5 5 4 4
4 4 4 4 4 3 2 2 0 1 4 3 3 3 2 2 3 3 2 3 5 6 6 8 6 5 6 6 7 7 7 8 8 6 6 7 10 7 5 5 5 4 4 4 4
4 4 4 4 4 1 2 1 1 1 6 5 4 3 2 2 4 2 1 3 4 6 6 7 5 5 6 7 6 8 6 6 7 8 11 7 13 9 7 7 7 5 5 4 4
4 4 4 5 1 2 0 -1 0 1 12 5 4 1 2 4 3 3 1 3 5 6 5 7 6 6 7 7 6 7 5 6 7 8 10 10 12 13 10 9 9 5 4 4 4
4 4 5 2 -0 -0 -0 0 0 7 12 7 4 5 5 4 4 3 3 2 3 5 5 5 4 5 6 5 5 5 6 6 7 10 15 11 12 13 9 8 6 5 4 4 4
5 5 5 -0 1 -0 -0 1 7 10 6 7 6 5 5 6 5 5 5 5 6 8 8 6 6 5 5 6 5 6 9 15 15 14 14 10 12 11 7 6 5 5 4 4 4
5 6 3 -0 -2 -0 0 5 10 7 7 5 6 6 7 6 6 5 6 7 5 6 7 9 10 7 5 6 7 7 11 13 16 18 14 8 14 12 6 5 4 4 4 4 4
6 -0 0 0 -0 -1 3 8 8 7 6 7 6 7 7 6 6 6 6 7 6 6 9 10 9 5 5 5 5 7 12 9 10 9 12 11 10 8 6 6 5 5 5 5 4
1 1 2 -0 -0 1 5 8 6 5 5 5 8 7 8 8 8 7 7 6 6 5 5 7 10 7 6 5 5 6 6 10 9 14 16 13 12 12 9 7 6 5 5 5 4
1 3 1 0 0 3 7 6 5 4 4 6 6 7 7 7 7 7 7 6 6 6 5 6 8 8 7 8 9 9 9 11 11 10 15 16 16 7 7 6 6 5 5 4 4
2 4 1 0 4 4 6 5 8 5 4 4 5 6 7 7 8 8 8 7 5 6 8 6 8 10 9 8 6 6 8 8 11 12 13 12 13 7 6 5 5 5 4 4 3
4 3 2 1 6 6 4 5 4 5 5 5 5 5 5 7 9 8 7 5 5 6 7 7 9 12 10 11 9 10 8 7 8 9 12 16 13 6 5 5 5 5 4 4 3
3 5 4 3 3 5 5 6 6 4 4 4 5 4 6 7 6 8 7 6 5 5 6 5 8 10 12 11 8 10 8 7 8 11 11 12 13 8 6 6 5 5 4 4 3
3 5 4 6 5 4 5 5 6 7 5 4 5 5 6 8 8 8 7 6 6 6 5 6 10 9 8 8 8 8 9 8 9 9 11 10 9 8 6 5 5 4 4 4 4
5 5 2 4 5 5 7 6 7 6 6 6 6 5 5 7 7 8 7 7 7 8 6 6 10 8 10 8 8 9 8 8 8 9 8 8 9 6 5 4 4 4 4 4 4
1 2 4 6 5 6 6 6 6 5 5 4 5 6 7 6 5 4 4 4 5 6 7 7 9 11 12 10 9 11 10 9 8 8 8 10 8 5 5 5 5 4 4 4 4